Date,TemperatureHighF,TemperatureAvgF,TemperatureLowF,DewpointHighF,DewpointAvgF,DewpointLowF,HumidityHigh,HumidityAvg,HumidityLow,PressureMaxIn,PressureMinIn,WindSpeedMaxMPH,WindSpeedAvgMPH,GustSpeedMaxMPH,PrecipitationSumIn
2013-1-1,52,47,39,52,46,39,99,97,76,29.94,29.79,9,3,14,0.86
2013-1-2,39,35,33,39,33,31,99,93,89,30.09,29.89,8,5,12,0.01
2013-1-3,50,35,27,34,29,22,93,80,44,30.25,29.96,9,3,14,0.00
2013-1-4,55,34,23,31,24,20,91,70,32,30.30,30.07,7,2,12,0.00
2013-1-5,50,37,24,38,29,21,94,73,42,30.23,30.06,3,1,7,0.05
2013-1-6,56,42,32,43,36,28,97,83,54,30.18,29.97,7,2,11,0.01
2013-1-7,59,37,27,36,28,22,87,71,35,30.25,29.98,8,3,10,0.00
2013-1-8,64,46,27,45,37,23,96,73,44,30.22,29.95,6,2,11,0.00
2013-1-9,53,51,50,50,48,45,95,88,79,30.28,30.08,3,1,4,0.11
2013-1-10,66,63,56,62,60,56,99,89,83,29.85,29.49,10,5,14,0.01
2013-1-11,72,66,63,65,63,61,99,90,74,29.55,29.37,12,5,16,0.08
2013-1-12,71,67,64,67,65,61,99,92,78,29.52,29.36,6,3,10,0.05
2013-1-13,70,56,29,66,53,28,98,91,58,30.18,29.80,12,5,17,0.91
2013-1-14,40,36,33,39,34,31,94,93,89,30.39,30.07,13,8,20,0.92
2013-1-15,39,36,34,39,35,32,99,95,93,30.21,29.95,11,5,15,1.56
2013-1-16,39,38,37,39,37,35,99,97,93,30.12,29.94,8,3,15,0.25
2013-1-17,41,37,34,38,33,28,98,87,73,30.40,29.92,14,6,21,0.13
2013-1-18,52,33,28,33,28,24,95,82,40,30.48,29.51,7,2,10,0.00
2013-1-19,61,41,26,36,29,22,93,68,28,29.99,29.68,9,2,14,0.01
2013-1-20,67,42,29,42,32,26,96,73,34,29.80,29.58,8,1,11,0.00
2013-1-21,55,38,28,33,20,13,87,54,22,29.84,29.61,13,4,17,0.00
2013-1-22,47,32,23,16,12,6,60,44,24,29.99,29.77,10,3,14,0.00
2013-1-23,61,44,31,38,27,16,75,51,32,29.94,29.62,6,2,9,0.00
2013-1-24,49,40,34,39,21,9,87,49,24,29.91,29.64,13,6,19,0.00
2013-1-25,48,42,29,45,30,14,95,67,34,29.94,29.66,8,3,11,0.11
2013-1-26,58,37,32,37,32,29,93,83,40,30.09,29.93,8,4,14,0.01
2013-1-27,52,47,35,41,36,29,81,65,56,30.12,29.95,6,3,10,0.00
2013-1-28,66,56,46,53,46,35,85,70,56,30.04,29.87,8,4,14,0.00
2013-1-29,70,61,47,63,58,21,95,88,77,29.89,29.40,13,3,19,0.00
2013-1-30,71,56,37,63,51,27,95,82,66,29.67,29.24,15,7,20,0.30
2013-1-31,54,40,30,32,28,23,78,63,35,29.93,29.65,7,3,12,0.00
2013-2-1,45,32,23,34,15,4,74,52,25,30.21,29.91,11,4,15,0.00
2013-2-2,43,32,22,38,25,16,89,76,55,30.13,29.83,7,1,13,0.02
2013-2-3,63,42,30,43,30,24,97,67,25,29.96,29.73,8,2,13,0.00
2013-2-4,53,42,29,37,29,24,86,64,33,29.90,29.69,6,2,11,0.00
2013-2-5,70,51,37,48,41,34,91,73,37,29.79,29.52,5,1,11,0.04
2013-2-6,72,49,32,45,38,29,96,71,28,29.91,29.70,6,2,8,0.00
2013-2-7,61,52,46,50,46,40,90,80,62,29.81,29.65,5,2,8,0.01
2013-2-8,60,46,29,33,29,23,96,57,24,29.73,29.58,10,3,11,0.00
2013-2-9,69,55,29,39,28,19,99,44,15,29.92,29.62,7,3,11,0.00
2013-2-10,58,53,45,57,45,34,99,78,49,29.94,29.66,9,4,15,0.43
2013-2-11,59,52,29,59,49,28,99,92,55,29.97,29.69,4,1,7,36.99
2013-2-12,54,46,37,42,38,32,95,77,45,29.98,29.56,9,2,13,0.14
2013-2-13,50,44,39,48,41,35,98,90,79,29.85,29.49,7,3,14,0.05
2013-2-14,65,44,29,43,35,28,99,75,35,29.93,28.28,6,2,11,0.00
2013-2-15,61,43,30,47,35,27,99,75,43,29.95,29.76,10,2,18,0.00
2013-2-16,45,34,24,27,18,11,70,51,29,30.00,29.83,11,5,20,0.00
2013-2-17,55,32,18,25,17,9,85,58,22,30.13,29.91,5,1,11,0.00
2013-2-18,64,48,28,44,31,23,90,56,33,30.08,29.67,14,6,19,0.20
2013-2-19,60,46,29,48,33,16,99,66,23,29.99,29.69,9,4,14,0.15
2013-2-20,40,34,26,22,19,16,81,56,43,30.11,29.92,11,5,13,0.00
2013-2-21,59,44,31,48,29,17,96,61,22,30.03,29.63,12,5,12,0.57
2013-2-22,54,50,47,49,48,46,97,91,83,29.92,29.68,8,3,12,0.05
2013-2-23,56,46,35,47,44,33,99,91,68,29.83,29.67,6,2,8,0.01
2013-2-24,64,45,32,36,32,28,94,65,29,30.44,29.69,10,4,14,0.00
2013-2-25,63,50,40,47,37,28,94,61,34,29.76,29.29,13,6,19,0.05
2013-2-26,51,46,40,47,42,36,99,87,67,29.56,29.25,14,6,20,0.18
2013-2-27,60,46,40,40,36,33,81,69,45,29.73,29.47,6,3,16,0.00
2013-2-28,44,39,35,35,29,25,79,67,59,29.87,29.55,6,3,10,0.00
2013-3-1,43,37,33,33,30,27,89,74,60,29.91,29.71,5,2,7,0.00
2013-3-2,40,34,30,34,29,25,91,84,72,29.94,29.74,6,2,13,0.06
2013-3-3,51,35,25,26,21,12,82,61,27,29.98,29.72,9,2,13,0.00
2013-3-4,61,45,28,40,28,22,87,57,26,29.96,29.65,9,3,14,0.00
2013-3-5,58,49,34,57,45,23,99,86,59,29.88,29.43,11,5,19,0.65
2013-3-6,48,37,28,33,27,22,83,66,53,30.09,29.73,10,5,17,0.00
2013-3-7,56,38,26,35,28,22,89,69,42,30.18,29.96,10,4,13,0.00
2013-3-8,69,45,29,33,26,19,95,57,15,30.12,29.59,7,2,11,34.85
2013-3-9,68,52,35,39,35,29,92,56,31,30.02,29.75,8,3,11,0.00
2013-3-10,74,63,46,51,42,35,73,47,32,29.86,29.51,13,6,28,0.00
2013-3-11,66,51,39,56,47,35,99,88,54,29.76,29.50,12,4,23,1.06
2013-3-12,62,44,30,40,35,29,98,73,37,29.90,29.64,8,3,12,0.00
2013-3-13,58,43,32,35,28,20,94,59,26,30.11,29.81,9,4,17,0.00
2013-3-14,60,41,26,36,24,16,85,55,21,30.23,29.83,9,2,13,0.00
2013-3-15,81,56,33,50,41,31,99,62,32,29.94,29.51,7,3,16,0.00
2013-3-16,81,63,50,52,48,45,94,61,31,29.74,29.38,12,4,14,0.00
2013-3-17,74,60,47,58,51,47,99,75,42,29.75,29.45,10,3,15,0.00
2013-3-18,64,63,62,57,57,56,80,80,80,29.51,29.50,5,5,10,0.00
2013-3-19,69,54,29,39,28,19,99,44,15,29.92,29.76,7,3,11,0.00
2013-3-20,66,48,29,33,28,18,95,50,23,30.07,29.77,9,4,17,0.00
2013-3-21,52,38,24,31,19,11,76,50,23,29.97,29.75,12,4,15,0.00
2013-3-22,50,41,-20,40,29,-74,97,65,12,29.97,29.80,20,2,100,0.00
2013-3-23,54,48,-16,52,47,-16,99,97,85,29.92,29.60,8,3,13,0.87
2013-3-24,64,52,39,56,48,30,98,86,71,29.76,29.38,11,5,22,0.53
2013-3-25,42,37,34,31,27,25,78,68,57,30.14,29.66,10,5,17,0.00
2013-3-26,45,38,33,35,30,27,82,73,60,30.32,30.02,7,3,11,0.00
2013-3-27,60,41,26,36,30,23,97,69,33,30.35,30.11,7,2,11,0.00
2013-3-28,68,47,31,40,34,27,99,69,28,30.30,30.05,8,2,13,0.00
2013-3-29,70,52,35,47,39,34,99,67,27,30.25,29.98,11,2,16,0.00
2013-3-30,71,57,45,57,50,43,99,82,50,30.09,29.83,5,2,10,0.51
2013-3-31,66,58,53,65,57,52,99,98,93,29.90,29.71,4,2,8,0.47
2013-4-1,73,56,29,60,50,28,99,82,54,30.12,29.71,7,3,11,0.01
2013-4-2,58,49,41,43,31,25,75,52,31,30.31,30.04,12,7,17,0.00
2013-4-3,46,46,45,31,30,30,57,55,54,30.22,30.17,8,6,11,0.00
2013-4-4,48,46,45,46,44,42,99,95,81,30.21,30.03,7,2,7,0.40
2013-4-5,68,53,43,50,44,38,99,75,35,30.18,29.89,14,4,14,0.01
2013-4-6,76,55,37,51,42,36,99,69,26,30.21,29.96,6,2,6,0.00
2013-4-7,77,61,45,56,50,44,99,70,41,30.29,29.97,13,2,13,0.00
2013-4-8,82,71,51,62,57,50,99,65,44,30.18,29.91,13,4,13,0.00
2013-4-9,83,69,55,65,59,54,99,75,47,30.18,29.91,10,2,14,0.00
2013-4-10,88,76,57,63,59,56,98,59,37,30.08,29.78,8,4,16,0.00
2013-4-11,77,68,29,67,62,28,99,81,62,30.38,29.56,14,4,120,1.44
2013-4-12,60,49,39,33,29,23,77,49,24,29.95,29.78,11,4,11,0.00
2013-4-13,69,49,29,39,29,19,99,55,15,29.95,29.82,7,2,11,0.00
2013-4-14,140,85,29,100,62,28,99,86,55,30.03,29.84,15,2,15,0.01
2013-4-15,140,131,29,100,79,6,99,83,1,30.18,29.88,5,3,9,29.31
2013-4-17,86,78,0,69,66,64,81,65,49,29.94,29.91,8,3,12,0.00
2013-4-18,84,75,66,67,63,58,92,69,46,29.91,29.58,9,4,16,0.00
2013-4-19,75,51,38,68,47,36,99,85,60,30.04,29.56,9,3,14,1.07
2013-4-20,68,50,33,48,37,30,99,69,27,30.16,30.03,11,3,16,0.00
2013-4-21,73,56,40,48,41,35,99,64,27,30.22,30.10,7,2,11,0.00
2013-4-22,76,61,45,53,48,43,99,65,35,30.16,30.00,6,2,12,0.00
2013-4-23,78,64,49,58,51,42,99,68,42,30.06,29.91,7,2,13,0.00
2013-4-24,67,58,47,61,54,42,99,87,74,30.15,29.85,10,4,15,0.27
2013-4-25,69,54,42,44,40,34,97,64,28,30.26,30.12,9,4,13,0.00
2013-4-26,77,58,40,54,44,37,99,67,27,30.27,30.11,12,3,16,0.05
2013-4-27,70,63,54,66,59,52,99,88,75,30.20,29.88,7,2,11,0.15
2013-4-28,67,62,59,66,62,58,99,98,90,29.91,29.81,6,2,10,0.72
2013-4-29,78,63,52,64,58,52,99,85,57,29.93,29.82,4,1,8,0.00
2013-4-30,83,66,47,65,54,47,99,72,37,29.93,29.83,6,1,8,0.00
2013-5-1,66,66,66,56,56,55,70,70,69,29.93,29.91,4,3,8,0.00
2013-5-2,72,67,61,63,58,54,85,75,68,29.95,29.85,6,2,12,0.00
2013-5-3,76,65,47,60,57,47,99,77,54,29.86,29.65,7,4,17,0.39
2013-5-4,53,46,43,49,45,42,99,96,84,29.78,29.68,6,2,9,1.56
2013-5-5,64,50,42,52,48,42,99,93,59,29.69,29.60,9,2,11,0.57
2013-5-6,58,52,49,56,52,49,99,98,91,30.46,29.58,4,1,7,1.36
2013-5-7,72,57,43,59,52,42,99,86,51,29.81,29.69,6,1,8,0.01
2013-5-8,80,63,50,67,58,49,99,86,54,29.87,29.78,6,1,10,0.04
2013-5-9,83,64,52,66,58,52,99,85,47,29.92,29.81,6,1,9,0.00
2013-5-10,73,65,61,66,62,60,98,91,74,29.86,29.72,8,2,13,0.37
2013-5-11,78,66,52,70,62,52,99,86,63,29.83,29.73,7,2,11,0.01
2013-5-12,68,58,45,56,43,33,99,61,32,29.96,29.83,10,4,14,0.00
2013-5-13,72,56,39,51,44,39,99,69,34,30.07,29.95,6,2,11,0.00
2013-5-14,84,67,47,62,55,47,99,70,42,30.00,29.86,11,3,17,0.00
2013-5-15,86,71,54,62,58,54,99,68,35,29.96,29.81,7,2,14,0.00
2013-5-16,84,70,58,67,61,50,99,75,34,29.87,29.77,6,1,12,0.00
2013-5-17,74,67,62,70,66,60,99,96,86,29.87,29.77,4,1,7,0.48
2013-5-18,83,73,66,75,70,66,99,91,71,29.84,29.77,5,1,8,0.00
2013-5-19,70,69,68,69,69,68,99,99,98,29.81,29.77,0,0,1,0.00
2013-5-22,66,64,62,65,63,62,99,97,97,29.92,29.90,0,0,0,0.00
2013-5-23,84,71,60,72,62,58,99,77,47,30.07,29.92,6,2,11,0.01
2013-5-24,62,62,62,58,58,58,88,88,88,30.06,30.06,2,1,2,0.00
2013-5-26,66,60,0,58,56,0,92,83,79,29.94,29.92,0,0,0,0.00
2013-5-27,87,72,57,66,62,57,100,73,43,29.96,29.84,9,2,13,0.00
2013-5-28,87,75,62,68,64,59,100,70,45,29.92,29.83,8,2,16,0.00
2013-5-29,88,79,68,70,65,60,86,63,48,29.94,29.83,6,3,13,0.00
2013-5-30,86,78,67,74,69,64,95,74,60,29.93,29.82,7,3,13,0.00
2013-5-31,85,78,71,73,70,67,89,75,61,29.90,29.78,8,3,13,0.00
2013-6-1,85,75,68,76,70,67,100,86,67,29.83,29.69,10,3,19,0.14
2013-6-2,84,74,68,74,70,68,100,89,65,29.75,29.67,7,1,11,0.06
2013-6-3,84,73,63,70,65,61,100,78,51,29.78,29.69,8,3,11,0.00
2013-6-4,88,73,60,69,63,60,100,75,44,29.81,29.72,6,2,8,0.00
2013-6-5,80,71,63,74,69,62,100,94,76,29.77,29.66,6,1,10,0.28
2013-6-6,84,74,65,75,70,65,100,88,62,29.67,29.53,5,1,9,0.01
2013-6-7,78,72,67,73,70,67,100,92,77,29.60,28.03,5,2,8,0.00
2013-6-10,86,78,68,73,69,56,100,77,49,29.99,29.91,9,3,18,0.58
2013-6-11,92,81,70,79,74,69,100,81,58,30.05,29.97,5,2,10,0.00
2013-6-12,96,83,71,80,74,69,100,77,47,30.08,29.97,6,2,8,0.00
2013-6-13,92,81,71,80,74,67,100,81,63,29.98,29.81,10,3,17,0.01
2013-6-14,86,74,63,68,63,57,100,71,39,30.03,29.91,10,4,14,0.00
2013-6-15,64,62,60,62,61,60,100,96,92,30.04,30.02,0,0,0,0.00
2013-6-16,91,76,64,77,70,63,100,86,55,30.10,29.98,9,1,9,0.07
2013-6-17,92,75,70,79,72,68,100,92,54,30.03,29.91,13,1,23,0.48
2013-6-18,83,74,67,78,71,67,100,90,71,29.97,29.87,11,3,17,0.80
2013-6-19,91,76,64,74,68,63,100,79,46,30.06,29.95,8,2,11,0.00
2013-6-20,91,77,66,74,69,65,100,79,51,30.19,30.06,13,1,19,0.83
2013-6-21,88,76,64,75,68,63,100,80,51,30.23,30.12,5,1,8,0.00
2013-6-22,90,77,64,74,68,63,100,77,48,30.22,30.07,4,1,7,0.00
2013-6-23,90,77,63,74,69,62,100,79,49,30.17,30.07,4,1,8,0.00
2013-6-24,90,78,67,77,72,67,100,84,55,30.20,30.08,6,1,8,0.00
2013-6-25,91,79,73,78,74,72,100,85,59,30.15,30.01,5,2,8,0.00
2013-6-26,91,81,70,78,74,69,100,79,56,30.06,29.90,7,2,13,0.00
2013-6-27,92,80,69,83,75,53,100,85,61,29.97,29.84,9,2,14,0.27
2013-6-28,87,78,70,79,73,71,100,85,61,29.92,29.78,7,2,11,0.00
2013-6-29,89,78,66,74,68,62,100,74,44,29.82,29.75,5,1,9,0.00
2013-6-30,89,75,61,72,66,59,100,76,39,29.88,29.79,6,1,13,0.02
2013-7-1,85,73,62,75,67,62,100,84,59,29.98,29.85,5,1,10,0.07
2013-7-2,85,72,61,71,66,61,100,82,54,30.11,29.97,5,1,9,0.00
2013-7-3,86,73,65,74,70,65,100,89,59,30.18,30.10,5,1,7,0.05
2013-7-4,73,71,68,72,70,68,100,99,96,30.17,30.10,6,1,8,5.22
2013-7-5,77,72,69,75,71,69,100,97,88,30.20,30.11,4,1,11,0.47
2013-7-6,74,72,70,74,72,70,100,99,94,30.20,30.13,3,1,5,0.52
2013-7-7,87,77,70,78,73,70,100,90,65,30.21,30.14,5,1,9,0.02
2013-7-8,87,78,70,78,74,71,100,89,71,30.26,30.16,4,1,8,0.00
2013-7-9,93,80,73,80,76,72,100,89,56,30.25,30.12,5,1,14,0.00
2013-7-10,92,81,70,81,76,70,100,84,59,30.15,29.99,14,2,23,0.00
2013-7-11,88,76,70,82,74,70,100,92,73,30.08,29.95,8,1,14,0.00
2013-7-12,88,77,68,74,69,62,100,79,55,30.06,29.99,10,5,14,0.00
2013-7-13,88,76,61,74,68,61,100,78,54,30.80,30.03,6,2,8,0.00
2013-7-14,88,80,73,76,73,70,96,80,59,30.22,30.10,6,2,10,0.00
2013-7-15,88,79,73,75,73,71,100,82,58,30.33,30.22,5,2,10,0.00
2013-7-16,93,80,70,77,73,70,100,82,53,30.38,30.30,5,1,8,0.00
2013-7-17,96,82,70,79,75,70,100,80,47,30.37,30.23,6,2,11,0.00
2013-7-18,94,81,73,76,74,70,100,80,52,30.26,30.12,4,1,7,0.00
2013-7-19,91,80,69,78,73,69,100,82,53,30.19,30.04,6,1,7,0.00
2013-7-20,91,80,69,78,74,69,100,82,52,30.11,29.98,5,2,8,0.00
2013-7-21,91,78,72,79,74,71,100,87,58,30.09,30.00,6,2,12,0.00
2013-7-22,82,75,69,77,73,69,100,93,78,30.05,29.98,7,2,10,0.00
2013-7-23,81,75,69,78,73,69,100,95,81,30.04,29.93,7,2,12,0.01
2013-7-24,86,77,70,77,73,70,100,91,66,30.00,29.93,4,1,9,0.00
2013-7-25,87,76,66,71,67,65,96,77,50,30.11,29.99,9,3,14,0.00
2013-7-26,88,74,62,73,67,62,100,81,51,30.15,30.05,4,1,10,0.00
2013-7-27,87,75,69,75,71,68,100,87,58,30.06,29.98,4,1,8,0.00
2013-7-28,85,73,67,72,67,64,100,80,60,30.16,30.01,7,3,7,0.00
2013-7-29,83,72,62,66,63,57,100,76,43,30.25,30.14,7,2,8,0.00
2013-7-30,91,74,60,78,68,60,100,84,51,30.27,30.14,6,1,9,0.32
2013-7-31,84,75,69,79,73,69,100,95,79,30.19,30.02,5,2,9,0.83
2013-8-1,87,77,68,78,71,68,100,85,59,30.09,30.03,7,2,13,0.00
2013-8-2,89,75,64,74,69,63,100,82,50,30.12,30.06,4,1,7,0.00
2013-8-3,82,74,66,77,72,66,100,94,83,30.17,30.07,6,1,9,0.07
2013-8-4,89,78,69,79,72,66,100,84,58,30.17,30.10,8,3,12,0.00
2013-8-5,88,75,67,73,69,64,97,81,47,30.16,30.05,4,1,7,0.00
2013-8-6,83,75,70,78,74,70,100,96,81,30.09,30.02,5,1,8,0.40
2013-8-7,89,76,72,80,74,71,99,93,71,30.08,30.01,12,1,17,0.15
2013-8-8,90,77,69,82,74,69,100,90,70,30.11,30.01,8,2,14,0.71
2013-8-9,90,82,75,80,77,75,100,86,65,29.93,29.85,6,2,9,0.06
2013-8-10,86,76,71,80,75,71,100,96,76,30.00,29.92,4,1,8,0.11
2013-8-11,90,78,69,80,74,69,100,89,63,30.02,29.92,5,1,8,0.01
2013-8-12,89,78,71,80,75,71,100,91,63,29.98,29.83,7,1,11,0.22
2013-8-13,87,78,72,77,74,71,100,88,66,29.87,29.77,7,2,11,0.01
2013-8-14,84,74,65,71,66,60,95,79,50,29.91,29.81,9,5,15,0.00
2013-8-15,81,67,60,71,62,58,97,86,71,29.92,29.86,4,2,6,0.00
2013-8-16,75,71,63,68,66,62,99,84,74,29.95,27.66,4,1,6,0.00
2013-8-17,71,69,68,67,66,66,95,90,86,29.95,29.92,2,1,3,0.00
2013-8-18,78,71,66,72,69,66,100,93,74,30.01,29.93,7,1,9,0.05
2013-8-19,86,74,65,77,71,65,100,90,66,29.97,29.88,6,1,8,0.09
2013-8-20,90,76,68,78,73,67,100,91,62,29.99,29.91,8,1,14,0.15
2013-8-21,86,77,70,78,74,70,100,90,70,30.03,29.95,4,1,8,0.00
2013-8-22,93,77,68,78,73,68,100,89,57,30.01,29.89,5,1,115,0.01
2013-8-23,93,78,68,79,73,68,100,86,56,29.95,29.84,5,1,8,0.01
2013-8-24,92,79,69,77,72,69,100,83,52,30.06,29.91,5,1,8,0.00
2013-8-25,87,76,66,74,68,65,100,79,54,30.17,30.06,5,1,8,0.01
2013-8-26,88,72,61,70,65,61,100,81,45,30.15,30.00,6,1,9,0.00
2013-8-27,90,73,62,72,67,62,100,83,47,30.02,29.90,6,1,7,0.00
2013-8-28,91,76,65,76,71,64,100,85,52,29.94,29.85,1,0,2,0.00
2013-8-29,94,79,67,77,72,67,100,84,52,29.92,28.35,6,1,9,0.00
2013-8-30,93,80,70,80,75,70,100,84,54,29.88,29.76,0,0,2,0.00
2013-8-31,96,81,71,79,74,71,100,83,47,29.81,29.71,6,0,9,0.00
2013-9-1,92,79,72,78,73,69,100,82,49,29.81,29.70,8,2,16,0.00
2013-9-2,82,75,69,76,73,69,100,92,75,29.84,28.29,6,2,11,0.99
2013-9-3,90,78,68,76,71,64,100,81,46,29.87,29.76,6,1,11,0.02
2013-9-4,90,74,65,72,67,63,100,80,43,29.98,29.85,7,2,9,0.00
2013-9-5,90,73,61,71,66,61,100,81,42,30.01,29.94,6,0,12,0.00
2013-9-6,92,75,64,72,67,63,100,81,43,30.00,29.90,2,0,4,0.00
2013-9-7,91,75,64,75,69,63,100,83,50,29.96,29.85,0,0,1,0.00
2013-9-8,94,77,64,76,71,64,100,85,48,29.88,29.80,4,1,8,0.00
2013-9-9,92,77,69,80,73,69,100,88,54,29.95,29.85,5,1,11,0.11
2013-9-10,91,78,70,78,72,69,100,84,53,30.04,29.94,4,0,6,0.00
2013-9-11,92,77,67,76,70,67,100,81,47,30.06,29.94,4,1,7,0.00
2013-9-12,92,72,67,75,69,66,100,92,50,29.95,29.78,16,0,16,0.11
2013-9-13,85,72,59,72,64,55,100,78,40,29.84,29.76,9,3,13,0.01
2013-9-14,81,64,52,62,57,51,100,79,43,29.91,29.83,7,2,11,0.00
2013-9-15,85,67,54,69,61,53,100,83,50,29.97,26.93,5,1,9,0.01
2013-9-16,91,70,56,71,62,55,100,78,36,30.01,29.93,6,1,9,0.00
2013-9-17,88,75,63,70,66,62,100,77,48,30.03,29.92,5,1,7,0.00
2013-9-18,83,74,68,71,66,63,97,78,64,30.04,29.93,6,2,8,0.00
2013-9-19,88,74,64,70,67,63,100,80,52,30.01,29.89,1,0,2,0.00
2013-9-20,89,75,62,71,66,62,100,78,48,29.91,29.70,1,0,2,0.07
2013-9-21,72,67,56,72,66,55,100,95,72,30.64,29.59,8,2,11,2.35
2013-9-22,80,64,52,60,56,52,100,79,43,30.00,29.93,10,4,14,0.01
2013-9-23,86,66,53,66,59,53,100,80,45,30.07,29.99,4,1,8,0.00
2013-9-24,76,67,58,71,65,58,100,94,80,30.81,29.94,5,1,9,0.00
2013-9-25,78,70,65,72,68,64,100,94,76,29.96,29.89,5,1,8,0.00
2013-9-26,86,72,65,70,66,63,100,84,55,30.10,29.95,6,2,9,0.00
2013-9-27,86,68,56,68,62,56,100,83,48,30.22,30.10,5,1,8,0.00
2013-9-28,82,66,56,65,58,55,100,80,43,30.29,30.16,6,1,11,0.00
2013-9-29,78,65,54,64,59,53,100,84,55,30.21,30.09,4,1,10,0.00
2013-9-30,67,64,63,65,62,60,96,92,85,30.16,30.08,3,0,7,0.00
2013-10-4,88,76,64,73,69,63,100,82,53,29.97,29.89,5,1,8,0.00
2013-10-5,91,74,64,73,68,63,100,82,50,29.93,29.80,7,1,14,0.00
2013-10-6,81,70,56,75,67,53,100,88,72,30.42,29.66,8,3,13,0.00
2013-10-7,74,60,50,57,52,48,100,78,44,29.91,29.76,12,4,16,0.00
2013-10-8,83,68,50,62,56,48,92,69,43,29.93,29.87,7,3,10,0.00
2013-10-9,81,68,58,62,57,51,97,72,43,30.02,29.92,5,2,8,0.00
2013-10-10,59,57,55,59,56,54,100,99,97,29.95,29.94,1,0,2,0.00
2013-10-11,87,70,52,66,60,52,100,74,42,29.93,29.84,7,1,8,0.00
2013-10-12,87,65,51,66,59,50,100,83,45,29.95,29.86,6,1,9,0.00
2013-10-13,86,67,56,67,60,13,100,80,43,30.06,29.95,8,2,11,0.00
2013-10-14,85,68,57,66,62,57,100,84,48,30.05,29.92,5,1,8,0.00
2013-10-15,78,67,60,65,62,60,100,84,59,29.96,29.85,5,1,9,0.01
2013-10-16,69,66,63,67,64,61,100,95,87,29.88,29.76,5,2,8,0.52
2013-10-17,66,61,48,66,60,47,100,97,88,29.85,29.73,7,1,10,0.01
2013-10-18,69,54,46,61,50,45,100,90,59,29.92,29.80,5,1,8,0.04
2013-10-19,72,56,43,60,52,43,100,88,61,29.89,29.76,6,2,11,0.00
2013-10-20,72,50,36,50,42,35,100,79,28,29.93,29.85,4,1,8,0.06
2013-10-21,74,53,36,54,45,35,100,79,32,29.93,29.83,4,1,7,0.00
2013-10-22,69,57,48,58,53,48,100,89,64,29.86,29.73,6,2,9,0.00
2013-10-23,62,45,37,47,40,36,100,83,42,29.95,29.73,10,2,10,0.00
2013-10-24,66,49,37,47,42,36,100,80,49,30.14,29.95,10,2,14,0.00
2013-10-25,58,41,29,36,30,24,94,69,30,30.29,30.14,9,3,12,0.00
2013-10-26,64,45,27,46,34,24,100,71,24,30.15,29.96,6,1,11,0.00
2013-10-27,70,59,49,56,52,45,94,78,56,30.69,29.90,4,1,8,0.00
2013-10-28,73,60,54,62,56,53,100,90,63,30.08,29.94,4,1,7,0.01
2013-10-29,76,62,51,65,58,51,100,88,65,30.13,30.01,4,1,8,0.06
2013-10-30,81,65,55,65,58,54,100,80,41,30.10,29.93,6,1,11,0.00
2013-10-31,74,68,62,69,62,57,100,83,74,29.93,29.55,14,5,21,0.01
2013-11-1,77,60,46,65,54,45,100,83,36,29.71,29.58,5,1,11,0.00
2013-11-2,70,53,42,55,44,39,100,75,35,29.97,29.69,8,2,13,0.00
2013-11-3,68,48,35,44,38,28,100,76,25,30.13,29.97,8,2,12,0.00
2013-11-4,69,52,34,48,39,34,100,66,33,30.19,30.08,8,3,14,0.00
2013-11-5,65,56,48,47,41,37,90,58,43,30.21,30.07,6,3,10,0.00
2013-11-6,78,64,49,63,56,42,100,76,55,30.08,29.89,10,4,14,0.00
2013-11-7,62,48,33,61,42,32,100,82,38,30.14,29.89,12,4,17,0.00
2013-11-8,66,43,29,43,33,24,100,75,23,30.21,30.06,9,2,14,0.00
2013-11-9,62,47,33,47,40,33,100,80,40,30.14,30.03,4,1,8,0.00
2013-11-11,75,55,32,42,34,20,100,57,14,29.96,29.82,4,1,6,0.00
2013-11-12,50,42,31,46,29,12,95,63,33,30.20,29.84,20,8,28,0.00
2013-11-13,54,35,24,23,18,11,85,54,21,30.29,30.09,11,4,14,0.00
2013-11-14,62,31,20,31,21,17,94,73,20,30.11,29.87,6,1,6,0.00
2013-11-15,57,50,33,52,43,29,100,79,49,29.88,27.50,4,1,7,0.00
2013-11-16,66,60,51,61,57,51,100,90,82,29.80,29.69,9,4,11,0.00
2013-11-17,70,66,60,70,64,59,100,95,85,29.69,29.50,9,5,15,0.00
2013-11-18,73,55,40,60,45,34,100,73,27,29.85,29.61,12,4,14,0.00
2013-11-19,60,47,37,34,30,24,77,54,27,29.91,29.80,14,7,21,0.00
2013-11-21,61,59,45,55,53,34,89,79,65,29.99,29.92,5,2,7,0.00
2013-11-22,62,58,49,61,56,48,100,94,87,29.98,29.89,12,4,17,0.00
2013-11-23,53,44,30,48,37,20,100,78,50,30.14,29.95,16,9,24,0.00
2013-11-24,44,31,23,20,12,3,67,48,23,30.26,30.11,16,8,23,0.00
2013-11-25,43,37,27,38,23,9,99,61,26,30.11,29.81,8,2,14,0.00
2013-11-26,46,40,35,45,40,31,100,98,85,29.82,29.51,15,6,24,0.00
2013-11-27,43,32,20,31,21,13,85,65,41,30.04,29.60,13,5,88,0.00
2013-11-28,53,30,16,25,17,11,88,64,23,30.18,30.03,5,1,7,0.00
2013-11-29,62,36,21,33,24,18,96,70,24,30.24,30.13,7,1,10,0.00
2013-11-30,59,40,25,34,28,22,100,68,25,30.18,29.95,8,2,12,0.00
2013-12-1,58,45,28,45,37,27,100,75,48,29.95,29.67,6,1,8,0.00
2013-12-2,57,52,47,55,51,45,100,96,88,29.68,29.47,6,2,8,0.00
2013-12-3,62,55,45,60,54,44,100,97,87,29.54,29.47,4,2,7,0.00
2013-12-4,74,66,60,66,62,60,100,88,67,29.65,29.52,13,4,17,0.00
2013-12-5,79,65,43,69,62,42,97,88,69,29.74,29.59,13,5,16,0.00
2013-12-6,43,39,35,43,39,34,100,98,94,29.97,29.67,14,7,18,0.00
2013-12-7,35,34,32,34,32,30,96,92,88,30.12,29.95,14,9,20,0.00
2013-12-8,48,42,35,48,41,33,100,98,90,29.96,29.76,6,2,8,0.00
2013-12-9,49,41,34,48,40,34,100,98,93,29.89,29.75,10,4,16,0.00
2013-12-10,50,34,25,36,30,22,100,86,54,30.07,29.77,9,3,15,0.00
2013-12-11,58,33,20,38,25,18,100,76,27,30.16,30.05,7,1,12,0.00
2013-12-12,49,30,22,26,20,13,83,69,27,30.26,30.09,14,5,19,0.00
2013-12-13,50,36,19,33,24,16,90,67,35,30.08,29.77,5,1,8,0.00
2013-12-14,53,47,38,53,44,28,100,92,51,29.78,29.51,7,3,12,0.00
2013-12-15,38,35,30,36,31,26,94,85,76,29.95,29.69,7,3,14,0.00
2013-12-16,62,38,26,39,30,23,95,76,31,29.96,29.84,8,2,11,0.00
2013-12-17,68,43,28,42,33,25,95,71,35,29.98,29.80,7,2,11,0.00
2013-12-18,60,37,24,35,25,17,95,68,22,30.07,29.92,4,1,8,0.00
2013-12-19,65,46,26,40,30,23,100,59,26,29.97,29.79,9,2,14,0.00
2013-12-20,67,60,51,60,51,31,86,71,41,29.81,29.67,8,4,13,0.69
2013-12-21,73,68,63,68,64,59,96,88,81,29.68,29.44,17,7,27,0.27
2013-12-22,70,62,61,66,60,59,100,93,84,29.54,29.49,8,6,13,0.56
2013-12-23,29,28,27,26,25,-4,89,87,85,29.94,29.92,3,1,4,0.00
2013-12-24,34,27,24,27,22,20,90,83,64,30.04,29.93,17,3,17,0.00
2013-12-25,33,28,18,27,23,12,86,82,75,29.95,29.84,2,0,2,0.00
2013-12-26,57,35,23,36,26,20,94,73,38,29.92,29.85,9,2,9,0.00
2013-12-27,62,36,23,35,24,19,94,68,20,29.99,29.88,11,1,11,0.00
2013-12-28,48,39,28,42,35,23,99,87,50,29.88,29.46,10,1,10,0.54
2013-12-29,60,45,38,49,42,36,99,90,56,30.20,29.44,7,1,7,0.14
2013-12-30,44,37,31,44,32,28,98,84,74,29.81,29.62,14,4,14,0.00
2013-12-31,45,33,27,30,27,24,94,80,51,30.00,29.69,11,2,11,0.00
2014-1-1,54,38,24,40,29,21,94,75,42,29.85,29.56,10,2,10,0.01
2014-1-2,48,37,21,48,32,9,99,82,54,29.84,29.39,26,5,26,0.26